Location: Roland
(31.1349°N, 85.4372°W)
Time: 22:31:52
(UTC+00:00)

Tiros 1 - Pass Details

Date: 20 April 2021
Orbit: 630 x 664 km, 48.4° (Epoch: 05 May)

Event Time Altitude Azimuth Distance (km) Brightness Sun altitude
Rises 16:16:57 0° 289° (WNW) 2,929 10.3 62.6°
Reaches altitude 10° 16:20:46 10° 321° (NW) 2,015 9.5 63.3°
Maximum altitude 16:22:35 12° 344° (NNW) 1,878 9.4 63.5°
Drops below altitude 10° 16:24:24 10° 7° (N) 2,011 9.6 63.8°
Sets 16:28:12 0° 39° (NE) 2,916 10.5 64.4°
